Location: Unspecified
(52.4292°N, 19.3359°E)
Time: 19:42:42
(UTC+02:00)

Altair - Pass Details

Date: 26 May 2024
Orbit: 1502 x 1682 km, 47.2° (Epoch: 12 June)

Event Time Altitude Azimuth Distance (km) Brightness Sun altitude
Rises 14:41:52 0° 280° (W) 4,897 10.5 51.0°
Reaches altitude 10° 14:45:06 10° 276° (W) 3,924 10.2 50.6°
Maximum altitude 14:54:41 51° 205° (SSW) 2,040 10.0 49.5°
Drops below altitude 10° 15:04:17 10° 134° (SE) 3,928 9.7 48.3°
Sets 15:07:32 0° 129° (SE) 4,902 10.0 47.9°
